Saturday, November 18, 2017, 12:07 PM GMT
Back to Local

CZBF, Bathurst Airport Aviation Weather Reporting Station

Location: , , Canada Lat: 47.633
Local Time: 12:07 PM GMT (12:07 GMT) Lon: -65.75
Time Zone: GMT Elev: 193 ft

Show me the last for .
Show Coded

Time T Td Feel RH Dir Speed Gust Alt SLP Vis Weather Sky Remarks
2017-11-18 11:00 25 19 10 79 300° 13 23 29.68 29.70 15 FEW020 None
2017-11-18 10:00 25 19 8 79 290° 21 31 29.66 29.67 15 FEW020 None
2017-11-18 09:00 25 19 9 79 290° 14 24 29.65 29.67 15 SCT020 None
2017-11-18 08:00 25 19 7 79 290° 21 33 29.63 29.65 15 OVC020 None
2017-11-18 07:00 27 19 12 73 290° 14 23 29.62 29.63 15 SCT050 None
2017-11-18 06:00 27 21 11 79 300° 16 26 29.59 29.61 15 SCT050 None
2017-11-18 05:43 27 21 11 79 300° 18 29 29.59 29.60 15 SCT050 None
2017-11-18 05:00 28 21 13 74 290° 16 30 29.57 29.59 15 -SN OVC040 None
2017-11-18 04:00 28 23 14 79 300° 18 25 29.56 29.57 15 -SN OVC030 None
2017-11-18 03:00 30 25 14 80 290° 17 33 29.53 29.54 15 -SN OVC040 None
2017-11-18 02:00 32 28 19 86 300° 17 25 29.50 29.52 10 -SN OVC030 None
2017-11-18 01:00 34 30 22 86 310° 12 21 29.49 29.50 5 -SN OVC030 None
2017-11-18 00:52 34 30 22 86 300° 10 23 29.48 29.49 6 -SN OVC030 None
2017-11-18 00:00 36 30 22 80 310° 15 35 29.46 29.47 15 OVC050 None
2017-11-17 23:00 34 30 20 86 320° 14 29 29.44 29.45 10 OVC030 None
2017-11-17 22:00 36 32 24 86 320° 14 23 29.41 29.43 8 FEW006 OVC035 None
2017-11-17 21:00 36 32 25 86 310° 12 21 29.38 29.39 8 OVC010 None
2017-11-17 20:00 34 34 22 100 320° 10 20 29.36 29.37 4 -RA BR OVC006 None
2017-11-17 19:45 34 34 23 100 330° 10 18 29.36 29.37 4 -RA OVC006 None
2017-11-17 19:00 34 32 22 93 320° 10 21 29.35 29.36 2 -SN OVC010 None
2017-11-17 18:00 34 32 21 93 330° 8 24 29.34 29.36 1 -SN VV008 None
2017-11-17 17:00 34 32 22 93 330° 10 22 29.35 29.36 1 -SN VV010 None
2017-11-17 16:28 34 32 22 93 330° 13 23 29.35 29.36 0 -SN VV008 None
2017-11-17 16:00 34 32 22 93 340° 13 22 29.36 29.37 0 SN VV006 None
2017-11-17 15:00 32 32 21 100 330° 9 17 29.39 29.40 0 +SN VV002 None
2017-11-17 14:28 32 32 25 100 340° 8 - 29.40 29.41 0 +SN VV002 None
2017-11-17 14:00 32 32 21 100 340° 9 17 29.40 29.41 0 SN VV004 None
2017-11-17 13:00 34 34 23 100 10° 9 17 29.43 29.44 1 -SN VV008 None

Support USWX by starting your Amazon purchase here.